星链-36598(STARLINK-36598)

导读

STARLINK-36598是由美国发射的星链系列卫星,发射于2026年2月16日。星链项目是美国太空探索技术公司打造的低轨卫星互联网星座,通过大规模部署卫星实现全球覆盖的高速互联网服务。该卫星入轨后将融入现有星链网络,补充增强星座的通信服务能力,为全球用户提供天基互联网接入服务。

Basic Information
目录编号:
67844
目录名称:
STARLINK-36598
国际标识:
2026-033Z
轨道中心:
EARTH
卫星名称:
星链-36598
卫星全名:
星链-36598(STARLINK-36598)
卫星状态:
在轨 (已飞行200 天)
发射日期:
2026-02-16 UTC
国别 :
美国 (US)
星等 :
--
Orbit Information
数据来源 国际轨道数据
星历时间: 2026-09-04T14:52:32+0800
5小时前
查看轨道信息
半长轴: 6861.161km
偏心率: 0.0000328
轨道倾角: 42.997°
近地点辐角 214.467°
升交点赤经 338.818°
平近点角 145.616°
近地点: 482.798km
远地点: 483.25km
周期: 94.266分钟
每日圈数: 15.275884
Detailed Information
固有亮度:
5
最大亮度:
2.5
卫星平台:
Starlink V1.0
覆盖范围:
全球
运营商:
太空探索技术公司
运营商所在国:
美国
制造商(研发单位):
太空探索技术公司
制造商所在国:
美国
使用方式:
暂无
Satellite Introduction
Starlink 计划是 SpaceX 推出的全球卫星互联网项目,通过发射低轨道卫星,为全球尤其是偏远地区提供高速、低延迟的互联网服务。自 2019 年起,Starlink 已部署数千颗卫星,旨在缩小全球数字鸿沟,推动互联网普及。该项目还为军事、航空等行业提供通信支持,带来广泛经济效益。
2D Orbit Map
3D Orbit Map
Orbit Altitude Analysis Chart
Orbit Inclination Analysis Chart
Orbit Comprehensive Analysis Chart
View Comprehensive Chart
Conjunction Data List
Event ID Objects TCA Miss Dist (km) Collision Risk Probability Collision Risk Index (CRI) Action
CDM_260906-142805-841606-784421
2026-09-06T
14:28:51+0000
0.203 km
中距离
6.884506E-4 高风险 0.92
CDM_260830-142605-752206-784421
2026-08-30T
14:26:47+0000
1.156 km
极远距离
1.031508E-5 中风险 0.55
CDM_260906-125405-841606-784421
2026-09-06T
12:54:42+0000
1.794 km
极远距离
2.970439E-6 低风险 0.44
CDM_260829-083705-752206-784421
2026-08-29T
08:37:48+0000
2.756 km
极远距离
1.02514E-6 低风险 0.35